Regional Weather Roundup
Issued by NWS

Home | Current Version | Previous Version | Graphics & Text | Print | Product List | Glossary On
Versions: 1 2 3 4 5 6 7 8 9 10 11 12 13 14 15 16 17 18 19 20 21 22 23 24 25 26 27 28 29 30 31 32 33 34 35 36 37 38 39 40 41 42 43 44 45 46 47 48 49 50
000
ASUS45 KTFX 261104
RWRMT
MONTANA HOURLY WEATHER ROUNDUP
NATIONAL WEATHER SERVICE GREAT FALLS MT
404 AM MST MON JAN 26 2015

NOTE: "FAIR" INDICATES FEW OR NO CLOUDS BELOW 12000 FEET WITH NO
SIGNIFICANT WEATHER AND/OR OBSTRUCTIONS TO VISIBILITY.

* THESE STATIONS ARE NOT UNDER NWS QUALITY CONTROL. THEY DO NOT
   REPORT WEATHER SUCH AS PRECIPITATION OR FOG.

MTZ001>007-043-261200-
WEST OF THE DIVIDE
CITY           SKY/WX    TMP DP  RH WIND       PRES   REMARKS
KALISPELL      FOG       25  23  92 NE3       30.14F VSB 2
MISSOULA       CLEAR     28  27  96 CALM      30.23F
BUTTE          CLEAR     27  21  78 SE3       30.27F
MULLAN PASS    PTCLDY    43  27  53 S8        30.17F
* ANACONDA     CLEAR     45  27  49 S13G18     N/A
* ESSEX        N/A       27  26  96 SE1        N/A
* LINCOLN      N/A       24  23  96 NE2        N/A
* LOOKOUT PASS N/A       34  31  89 SE2        N/A
* POLSON       N/A       38  31  76 S2         N/A
* RONAN APT    CLEAR     28  28 100 N/A        N/A
* SEELEY LAKE  N/A       22  21  96 N/A        N/A
* THOMP F APT  PTCLDY    33  31  92 NE2G7      N/A
* YAAK HILL    N/A       35  32  89 N/A        N/A
$$

MTZ008-052>055-261200-
SOUTHWEST MONTANA
CITY           SKY/WX    TMP DP  RH WIND       PRES   REMARKS
BOZEMAN        CLEAR     30  25  82 S7        30.24F WCI  23
DILLON         CLEAR     36  27  70 S16       30.29S WCI  26
* W YELLOWSTON CLEAR     29  28  96 N/A        N/A
* THREE FORKS  CLEAR     37  34  89 N/A        N/A
* BOULDER HILL N/A       39  20  46 S10        N/A   WCI  32
* MONIDA PASS  N/A       29  29 100 E8         N/A   WCI  21
* RAYNOLDS PAS N/A       29  11  47 SE24G29    N/A   WCI  15
* WHITEHALL    N/A       38  27  65 W8G17      N/A   WCI  32
* WISE RIVER   N/A       28  24  85 W3         N/A
$$

MTZ009>010-012-014-046-048-049-054-261200-
EAST SLOPES AND CENTRAL MONTANA
CITY           SKY/WX    TMP DP  RH WIND       PRES   REMARKS
CUT BANK       MOCLDY    46  28  50 CALM      29.99F
GREAT FALLS    MOCLDY    52  27  38 SW21      30.04F
HELENA         PTCLDY    34  27  76 W6        30.19F WCI  29
MALMSTROM AFB  MOCLDY    52  28  40 SW23      30.05S
* DEARBORN     N/A       54  26  34 S11G18     N/A
* EAST GLACIER N/A       46  24  42 S11        N/A
* MONARCH      N/A       50  22  33 SW7G13     N/A
* PENDROY      N/A       45  28  51 S8         N/A
* ROGERS PASS  N/A       43  22  43 SE8G15     N/A
* SWEET GRASS  N/A       48  28  46 W17G22     N/A
$$

MTZ011-013-016-021-035-040-045-047-050-051-261200-
NORTH CENTRAL MONTANA
CITY           SKY/WX    TMP DP  RH WIND       PRES   REMARKS
HAVRE          MOCLDY    39  32  76 W10       29.98S WCI  32
LEWISTOWN      MOCLDY    46  28  50 NW6       30.05F
* N BAR RANCH  CLEAR     52  27  38 NW7G15    30.04S
* CHESTER      N/A       34  29  82 S2         N/A
* DENTON       N/A       47  29  50 SW14       N/A
* GEYSER       N/A       54  26  34 SW17G26    N/A
* JUDITH GAP   N/A       46  27  48 W17        N/A
* LOMA         N/A       48  31  52 SW12G17    N/A
$$

MTZ017>020-022>027-061-062-261200-
NORTHEAST MONTANA
CITY           SKY/WX    TMP DP  RH WIND       PRES   REMARKS
GLASGOW        CLEAR     32  28  85 W5        29.94F WCI  27
GLENDIVE       PTCLDY    37  30  76 W10       29.96S WCI  30
JORDAN         PTCLDY    34  30  85 NW3       29.98R
SIDNEY         PTCLDY    36  32  85 CALM      29.96S
WOLF POINT     CLEAR     34  30  85 SW5       29.94F WCI  29
* BEAVER HILL  N/A       39  32  76 W14        N/A   WCI  31
* CIRCLE       N/A       40  34  79 NW1G7      N/A
* LINDSAY DVD  N/A       41  32  70 W16G21     N/A
* NAVAJO       N/A       38  29  70 NW10       N/A   WCI  31
* SACO         N/A       35  31  85 S4         N/A
$$

MTZ028>042-056>058-261200-
SOUTHCENTRAL AND SOUTHEAST MONTANA
CITY           SKY/WX    TMP DP  RH WIND       PRES   REMARKS
BAKER          CLEAR     36  30  79 W10       29.96R WCI  29
BILLINGS       PTCLDY    43  28  56 SW24      30.09R
LIVINGSTON     CLEAR     52  27  38 W24G37    30.17R
MILES CITY     CLEAR     39  30  70 W5        29.99R WCI  35
* LAUREL APT   PTCLDY    41  25  53 S9         N/A
* ROUNDUP APT  MOCLDY    54  27  35 SW20       N/A
* HYSHAM       N/A       49  27  43 W6         N/A
* LAME DEER    N/A       49  28  44 W13        N/A
* REED POINT   N/A       47  26  44 E7         N/A
* ROSCOE HILL  N/A       55  15  20 S8G14      N/A
$$

REGIONAL REPORTS...DAKOTAS
CITY           SKY/WX    TMP DP  RH WIND       PRES   REMARKS
WILLISTON      CLOUDY    39  30  70 SW7       29.90R WCI  34
DICKINSON      CLOUDY    37  34  89 W10       29.88R WCI  30
CROSBY         CLOUDY    37  32  82 W14       29.86R WCI  28
WATFORD CITY   CLOUDY    37  32  82 SW9       29.88S WCI  30
BISMARCK       MOCLDY    41  30  65 NW12      29.83R
GRAND FORKS    PTCLDY    36  28  73 NW10      29.64R WCI  29
FARGO          CLEAR     32  28  85 W9        29.66R WCI  24
BUFFALO SD     CLEAR     36  30  79 W10       29.89R WCI  29
RAPID CITY     CLEAR     48  28  46 NW9       29.98R
$$

REGIONAL REPORTS...WYOMING/IDAHO/WASHINGTON
CITY           SKY/WX    TMP DP  RH WIND       PRES   REMARKS
GILLETTE       PTCLDY    41  28  60 W10       30.09S
SHERIDAN       PTCLDY    34  27  76 SW5       30.08F WCI  29
CODY           MOCLDY    34  27  76 NE7       30.19S WCI  28
YELLOWSTONE LA MOCLDY    19  18  96 NW3       30.46S
SALMON         CLOUDY    21  19  92 CALM      30.41S VSB M1/4
MULLAN PASS    PTCLDY    43  27  53 S8        30.17S
SAND POINT     FOG       34  34 100 CALM      30.16F VSB 1/2
SPOKANE        FOG       36  36 100 NE7       30.12F VSB M1/4 WCI  30

$$



USA.gov is the U.S. government's official web portal to all federal, state and local government web resources and services.